sat.trackr.live / text

‹ back to catalog

STARLINK-6322

NORAD 57337 · 2023-099K

PAYLOAD ACTIVE UNKNOWN

§ Identity

Operator
Country
US
Launch date
2023-07-16
Launch site
AFETR
Launch vehicle
Mass (kg)
RCS (m²)

Purposes: comms

External: N2YO · Heavens-Above · Gunter

§ Orbital elements

Epoch: 2026-05-24T19:03:51.667200Z

Period
94.27 min
Inclination
43.0018°
Eccentricity
0.0001354
Mean motion
15.27577829 rev/d
Perigee alt
482.1 km
Apogee alt
484.0 km
Semi-major
6,861.2 km
B*
1.8197e-5
RAAN
182.7687°
Arg perigee
268.8579°
Mean anomaly
91.2117°
Rev number
15,771

§ Raw data

STARLINK-63221 57337U 23099K   26144.79434800  .00000239  00000+0  18197-4 0  99932 57337  43.0018 182.7687 0001354 268.8579  91.2117 15.27577829157715

JSON: /api/v1/satellites/57337 · /tle

For live sub-satellite position, see the globe view (requires WebGL).

§ Visibility from observer

Set your observer location to see the next 7 days of passes ≥ 10°. The values pass through the URL so the page stays shareable.

No JS? Fill the form by hand. The geolocation button needs JavaScript.